This is the latest recevied weather packets stored in our database for station/object K8RLH. If no packets are shown the sender has not sent any weather packets the latest 10 day(s).
| Time | Temp. | Humidity | Pressure | Rain* | Wind** | Luminosity | Snow |
|---|---|---|---|---|---|---|---|
| 1777855528 | 16.67° C | 49% | 1018.1 hPa | 0 mm | - | 0 W/m² | - |
| 1777855224 | 16.67° C | 49% | 1018.2 hPa | 0 mm | - | 0 W/m² | - |
| 1777854920 | 17.22° C | 48% | 1018 hPa | 0 mm | - | 0 W/m² | - |
| 1777854617 | 17.22° C | 48% | 1018 hPa | 0 mm | - | 0 W/m² | - |
| 1777854315 | 17.78° C | 47% | 1017.8 hPa | 0 mm | - | 1 W/m² | - |
| 1777854012 | 17.78° C | 47% | 1018 hPa | 0 mm | - | 1 W/m² | - |
| 1777853709 | 17.78° C | 44% | 1017.8 hPa | 0 mm | - | 2 W/m² | - |
| 1777853405 | 18.33° C | 45% | 1017.8 hPa | 0 mm | - | 3 W/m² | - |
| 1777853103 | 18.33° C | 44% | 1018 hPa | 0 mm | - | 5 W/m² | - |
| 1777852800 | 18.33° C | 43% | 1017.9 hPa | 0 mm | - | 7 W/m² | - |
| 1777852498 | 18.89° C | 42% | 1017.8 hPa | 0 mm | - | 8 W/m² | - |
| 1777852195 | 18.89° C | 41% | 1017.7 hPa | 0 mm | - | 10 W/m² | - |
| 1777851892 | 19.44° C | 41% | 1017.7 hPa | 0 mm | - | 11 W/m² | - |
| 1777851590 | 19.44° C | 39% | 1017.7 hPa | 0 mm | - | 13 W/m² | - |
| 1777851286 | 19.44° C | 39% | 1017.9 hPa | 0 mm | - | 14 W/m² | - |
| 1777850983 | 20° C | 38% | 1017.9 hPa | 0 mm | - | 18 W/m² | - |
| 1777850680 | 20° C | 37% | 1017.8 hPa | 0 mm | - | 17 W/m² | - |
| 1777850378 | 20° C | 38% | 1017.8 hPa | 0 mm | - | 18 W/m² | - |
| 1777850075 | 20° C | 37% | 1017.7 hPa | 0 mm | - | 19 W/m² | - |
| 1777849771 | 20° C | 37% | 1017.8 hPa | 0 mm | - | 20 W/m² | - |
| 1777849468 | 20° C | 36% | 1017.9 hPa | 0 mm | - | 63 W/m² | - |
| 1777849166 | 20° C | 36% | 1018 hPa | 0 mm | - | 26 W/m² | - |
| 1777848862 | 20° C | 37% | 1017.8 hPa | 0 mm | - | 31 W/m² | - |
| 1777848558 | 20.56° C | 35% | 1018.2 hPa | 0 mm | - | 33 W/m² | - |
| 1777848255 | 20.56° C | 36% | 1018.1 hPa | 0 mm | - | 25 W/m² | - |
* Rain latest hour (hover to see other rain measurements)
** Current wind speed in m/s (hover to see current wind gust speed)